User: anonymous   Login
Location: Unspecified
(0.0000°N, 0.0000°E)
Time: 12:53:14
(UTC+00:00)
Language:

Tiros 1 - Orbit

View from above orbital plane
View from above orbital plane
View from above satellite
View from above satellite

Ground track
Ground track

The orbit data is extracted from the following two-line orbital elements,

1 00029U 60002B   21212.86294036 -.00000099  00000-0  16288-4 0  9993
2 00029  48.3785 176.3668 0023968 185.7466 174.3174 14.74442558278952
Epoch (UTC): 31 July 2021 20:42:38
Eccentricity: 0.0023968
inclination: 48.3785°
perigee height: 630 km
apogee height: 664 km
right ascension of ascending node: 176.3668°
argument of perigee: 185.7466°
revolutions per day: 14.74442558
mean anomaly at epoch: 174.3174°
orbit number at epoch: 27895

The dashed part of the orbit path shows where the satellite is in the earth's shadow,  

DLR